SRR6381 LFML-EDDK

Flight info

Callsign SRR6381
Flight time 1h 28m
Altitude 36000
Route NASIK P856 RAPED DCT PIGOS DCT EKSID DCT NOSTA DCT NOPMU DCT ASTIG DCT ABESI DCT LADOL DCT ABUKA DCT ASKIK DCT DILUG T840 GULKO GULKO1C
Aircraft B77L/H-SDE1E2E3FGHIJ2J3J4J5M1RWXY/LB1D1

Departure

Time 2026-04-20 02:49
Airport Marseille Provence Airport (LFML)

Arrival

Time 2026-04-20 04:17
Airport Cologne Bonn Airport (EDDK)
Time Latitude Longitude Altitude Speed Heading
2026-04-20 02:40 43.44291 5.21138 42 ft 0 kts 315°
2026-04-20 02:42 43.44280 5.21152 40 ft 4 kts 315°
2026-04-20 02:43 43.44261 5.21178 36 ft 4 kts 315°
2026-04-20 02:43 43.44242 5.21204 39 ft 4 kts 310°
2026-04-20 02:43 43.44229 5.21233 39 ft 4 kts 271°
2026-04-20 02:43 43.44232 5.21251 36 ft 1 kts 241°
2026-04-20 02:44 43.44233 5.21254 38 ft 0 kts 241°
2026-04-20 02:46 43.44225 5.21235 39 ft 5 kts 241°
2026-04-20 02:46 43.44197 5.21164 39 ft 11 kts 248°
2026-04-20 02:46 43.44229 5.21047 41 ft 16 kts 314°
2026-04-20 02:46 43.44295 5.20922 41 ft 15 kts 299°
2026-04-20 02:47 43.44288 5.20786 41 ft 15 kts 229°
2026-04-20 02:47 43.44222 5.20670 37 ft 15 kts 242°
2026-04-20 02:47 43.44169 5.20541 41 ft 15 kts 241°
2026-04-20 02:47 43.44111 5.20417 39 ft 16 kts 225°
2026-04-20 02:48 43.44056 5.20410 37 ft 7 kts 142°
2026-04-20 02:48 43.43962 5.20537 37 ft 45 kts 135°
2026-04-20 02:48 43.43548 5.21111 39 ft 121 kts 135°
2026-04-20 02:48 43.42813 5.22128 59 ft 176 kts 135°
2026-04-20 02:49 43.41950 5.23333 660 ft 177 kts 133°
2026-04-20 02:49 43.41327 5.24853 1034 ft 194 kts 96°
2026-04-20 02:49 43.41569 5.26633 1611 ft 189 kts 67°
2026-04-20 02:49 43.42030 5.28431 1925 ft 211 kts 71°
2026-04-20 02:50 43.42442 5.30491 2154 ft 237 kts 75°
2026-04-20 02:50 43.42821 5.32777 2658 ft 251 kts 77°
2026-04-20 02:50 43.43191 5.35191 3185 ft 263 kts 79°
2026-04-20 02:50 43.43261 5.37760 3729 ft 275 kts 92°
2026-04-20 02:51 43.43107 5.40380 4458 ft 280 kts 95°
2026-04-20 02:51 43.42920 5.43072 5261 ft 284 kts 95°
2026-04-20 02:51 43.42744 5.45794 6006 ft 289 kts 93°
2026-04-20 02:51 43.42631 5.48595 6705 ft 295 kts 91°
2026-04-20 02:52 43.42548 5.51420 7442 ft 297 kts 91°
2026-04-20 02:52 43.42468 5.54268 8232 ft 299 kts 91°
2026-04-20 02:52 43.42384 5.57136 8981 ft 302 kts 91°
2026-04-20 02:52 43.42295 5.60038 9727 ft 305 kts 91°
2026-04-20 02:53 43.42203 5.62976 10356 ft 312 kts 91°
2026-04-20 02:53 43.42104 5.66056 10589 ft 335 kts 92°
2026-04-20 02:53 43.41997 5.69336 10796 ft 359 kts 92°
2026-04-20 02:53 43.41878 5.72886 10993 ft 383 kts 92°
2026-04-20 02:54 43.41751 5.76611 11553 ft 395 kts 92°
2026-04-20 02:54 43.41640 5.80428 12307 ft 402 kts 89°
2026-04-20 02:54 43.41870 5.84288 13180 ft 406 kts 78°
2026-04-20 02:54 43.42553 5.88073 14048 ft 407 kts 70°
2026-04-20 02:55 43.43542 5.91737 14841 ft 411 kts 67°
2026-04-20 02:55 43.44555 5.95391 15610 ft 416 kts 67°
2026-04-20 02:55 43.45588 5.99137 16363 ft 421 kts 67°
2026-04-20 02:55 43.46626 6.02924 17129 ft 425 kts 66°
2026-04-20 02:56 43.47672 6.06764 17896 ft 431 kts 66°
2026-04-20 02:56 43.48720 6.10636 18577 ft 436 kts 66°
2026-04-20 02:56 43.49780 6.14568 19224 ft 441 kts 66°
2026-04-20 02:56 43.50850 6.18551 19856 ft 445 kts 66°
2026-04-20 02:57 43.51927 6.22571 20472 ft 450 kts 66°
2026-04-20 02:57 43.53015 6.26642 21077 ft 455 kts 66°
2026-04-20 02:57 43.54111 6.30750 21697 ft 459 kts 66°
2026-04-20 02:57 43.55219 6.34908 22307 ft 464 kts 66°
2026-04-20 02:58 43.56334 6.39102 22912 ft 468 kts 66°
2026-04-20 02:58 43.57458 6.43339 23496 ft 473 kts 66°
2026-04-20 02:58 43.58597 6.47636 24000 ft 478 kts 66°
2026-04-20 02:58 43.59742 6.51964 24510 ft 482 kts 66°
2026-04-20 02:59 43.60893 6.56324 25042 ft 484 kts 66°
2026-04-20 02:59 43.62048 6.60705 25569 ft 488 kts 66°
2026-04-20 02:59 43.63212 6.65133 26018 ft 492 kts 66°
2026-04-20 02:59 43.64383 6.69589 26497 ft 496 kts 65°
2026-04-20 03:00 43.65563 6.74086 26937 ft 501 kts 65°
2026-04-20 03:00 43.66739 6.78579 27377 ft 505 kts 65°
2026-04-20 03:00 43.67938 6.83169 27834 ft 508 kts 65°
2026-04-20 03:00 43.69138 6.87777 28308 ft 512 kts 65°
2026-04-20 03:01 43.70345 6.92418 28744 ft 515 kts 65°
2026-04-20 03:01 43.71570 6.97139 29143 ft 519 kts 65°
2026-04-20 03:01 43.72755 7.01713 29510 ft 522 kts 65°
2026-04-20 03:01 43.73989 7.06492 29929 ft 524 kts 65°
2026-04-20 03:02 43.75188 7.11136 30377 ft 523 kts 65°
2026-04-20 03:02 43.76411 7.15897 30976 ft 519 kts 65°
2026-04-20 03:02 43.77620 7.20612 31578 ft 515 kts 65°
2026-04-20 03:02 43.78799 7.25213 31951 ft 516 kts 65°
2026-04-20 03:03 43.80034 7.30026 32294 ft 518 kts 66°
2026-04-20 03:03 43.81216 7.34654 33029 ft 510 kts 66°
2026-04-20 03:03 43.82388 7.39258 33518 ft 509 kts 66°
2026-04-20 03:03 43.83584 7.43960 33804 ft 511 kts 66°
2026-04-20 03:04 43.84760 7.48582 34101 ft 512 kts 66°
2026-04-20 03:04 43.85921 7.53164 34461 ft 510 kts 66°
2026-04-20 03:04 43.87097 7.57806 34823 ft 509 kts 66°
2026-04-20 03:04 43.88266 7.62436 35142 ft 508 kts 66°
2026-04-20 03:05 43.89425 7.67045 35553 ft 505 kts 66°
2026-04-20 03:05 43.90571 7.71603 35865 ft 505 kts 66°
2026-04-20 03:05 43.91747 7.76278 35916 ft 511 kts 66°
2026-04-20 03:06 43.94475 7.85253 36000 ft 497 kts 49°
2026-04-20 03:06 43.96734 7.88653 36022 ft 481 kts 33°
2026-04-20 03:06 43.99563 7.91266 35950 ft 471 kts 21°
2026-04-20 03:07 44.05654 7.94094 35994 ft 460 kts
2026-04-20 03:07 44.11723 7.96323 35973 ft 459 kts
2026-04-20 03:08 44.17990 7.98683 35966 ft 461 kts 10°
2026-04-20 03:08 44.24175 8.01089 35973 ft 462 kts 11°
2026-04-20 03:09 44.30322 8.03513 35961 ft 463 kts 11°
2026-04-20 03:09 44.36448 8.05935 35984 ft 463 kts 11°
2026-04-20 03:10 44.42792 8.08447 36017 ft 464 kts 11°
2026-04-20 03:10 44.48878 8.10860 35981 ft 465 kts 11°
2026-04-20 03:11 44.55186 8.13367 35994 ft 465 kts 11°
2026-04-20 03:11 44.61417 8.15848 35979 ft 466 kts 11°
2026-04-20 03:12 44.67641 8.18333 35989 ft 466 kts 11°
2026-04-20 03:12 44.73839 8.20813 35995 ft 466 kts 11°
2026-04-20 03:13 44.80054 8.23306 35982 ft 466 kts 11°
2026-04-20 03:13 44.86323 8.25825 35976 ft 465 kts 11°
2026-04-20 03:14 44.92558 8.28338 35988 ft 465 kts 11°
2026-04-20 03:14 44.98635 8.31542 36000 ft 469 kts 18°
2026-04-20 03:15 45.04631 8.35230 35989 ft 469 kts 18°
2026-04-20 03:15 45.10588 8.38907 35991 ft 468 kts 18°
2026-04-20 03:16 45.16599 8.42583 35978 ft 468 kts 18°
2026-04-20 03:16 45.22533 8.46201 35982 ft 467 kts 18°
2026-04-20 03:17 45.28551 8.49876 36006 ft 467 kts 18°
2026-04-20 03:17 45.34485 8.53509 36009 ft 467 kts 18°
2026-04-20 03:18 45.40402 8.57141 36013 ft 467 kts 18°
2026-04-20 03:18 45.46402 8.60833 36050 ft 466 kts 17°
2026-04-20 03:19 45.52378 8.64519 36030 ft 467 kts 17°
2026-04-20 03:19 45.58288 8.68172 36026 ft 467 kts 17°
2026-04-20 03:20 45.64223 8.71849 36019 ft 466 kts 17°
2026-04-20 03:20 45.69211 8.74948 36002 ft 467 kts 17°
2026-04-20 03:21 45.76131 8.79253 35983 ft 468 kts 17°
2026-04-20 03:21 45.81160 8.82391 35986 ft 468 kts 17°
2026-04-20 03:22 45.87131 8.86123 36003 ft 468 kts 17°
2026-04-20 03:22 45.93067 8.89842 36010 ft 467 kts 17°
2026-04-20 03:23 45.99034 8.93590 36012 ft 467 kts 17°
2026-04-20 03:23 46.04983 8.97340 36022 ft 467 kts 17°
2026-04-20 03:24 46.10915 9.01080 36017 ft 469 kts 17°
2026-04-20 03:24 46.17126 9.03714 36015 ft 458 kts
2026-04-20 03:25 46.23399 9.04147 36010 ft 452 kts 352°
2026-04-20 03:25 46.29658 9.03808 36016 ft 453 kts 352°
2026-04-20 03:26 46.35987 9.03466 36020 ft 454 kts 352°
2026-04-20 03:26 46.42252 9.03167 36051 ft 454 kts 352°
2026-04-20 03:27 46.48532 9.02888 36061 ft 454 kts 352°
2026-04-20 03:27 46.54872 9.02614 36041 ft 453 kts 352°
2026-04-20 03:28 46.61210 9.02341 36059 ft 452 kts 352°
2026-04-20 03:28 46.70615 9.01922 36072 ft 453 kts 352°
2026-04-20 03:29 46.76961 9.01640 36067 ft 454 kts 352°
2026-04-20 03:29 46.83249 9.01365 36108 ft 453 kts 352°
2026-04-20 03:30 46.89581 9.01082 36090 ft 454 kts 352°
2026-04-20 03:30 46.95792 9.00807 36073 ft 454 kts 352°
2026-04-20 03:31 47.02150 9.00526 36099 ft 451 kts 352°
2026-04-20 03:31 47.08481 9.00243 36085 ft 452 kts 352°
2026-04-20 03:32 47.14681 8.99964 36113 ft 450 kts 352°
2026-04-20 03:32 47.20931 8.99685 36103 ft 449 kts 352°
2026-04-20 03:33 47.27186 8.99404 36182 ft 448 kts 352°
2026-04-20 03:33 47.30317 8.99262 36078 ft 450 kts 352°
2026-04-20 03:33 47.33476 8.99120 36121 ft 448 kts 352°
2026-04-20 03:34 47.39705 8.98838 36121 ft 448 kts 352°
2026-04-20 03:34 47.45899 8.98556 36152 ft 448 kts 352°
2026-04-20 03:35 47.52134 8.98272 36133 ft 448 kts 352°
2026-04-20 03:35 47.58373 8.97988 36127 ft 448 kts 351°
2026-04-20 03:36 47.64604 8.97705 36124 ft 448 kts 351°
2026-04-20 03:36 47.70851 8.97418 36129 ft 449 kts 352°
2026-04-20 03:37 47.77096 8.97133 36128 ft 449 kts 352°
2026-04-20 03:37 47.83336 8.96846 36133 ft 448 kts 352°
2026-04-20 03:38 47.89544 8.96560 36148 ft 448 kts 352°
2026-04-20 03:38 47.95787 8.96272 36142 ft 448 kts 352°
2026-04-20 03:39 48.02027 8.95982 36134 ft 448 kts 352°
2026-04-20 03:39 48.08231 8.95695 36125 ft 447 kts 351°
2026-04-20 03:40 48.14469 8.95404 36141 ft 448 kts 352°
2026-04-20 03:40 48.20643 8.94585 36144 ft 442 kts 346°
2026-04-20 03:41 48.26695 8.93299 36143 ft 443 kts 346°
2026-04-20 03:41 48.32806 8.91992 36143 ft 444 kts 346°
2026-04-20 03:42 48.38928 8.90708 36141 ft 443 kts 346°
2026-04-20 03:42 48.45060 8.89434 36135 ft 444 kts 346°
2026-04-20 03:43 48.51155 8.88167 36143 ft 443 kts 346°
2026-04-20 03:43 48.57259 8.86892 36134 ft 443 kts 346°
2026-04-20 03:44 48.63368 8.85614 36135 ft 443 kts 346°
2026-04-20 03:44 48.69502 8.84328 36141 ft 443 kts 346°
2026-04-20 03:45 48.75607 8.83044 36170 ft 444 kts 346°
2026-04-20 03:45 48.81703 8.81758 36148 ft 444 kts 346°
2026-04-20 03:46 48.87842 8.80462 36144 ft 445 kts 346°
2026-04-20 03:46 48.93969 8.79164 36146 ft 445 kts 346°
2026-04-20 03:47 49.00073 8.77868 36156 ft 445 kts 346°
2026-04-20 03:47 49.06239 8.76555 36146 ft 445 kts 346°
2026-04-20 03:48 49.12350 8.75251 36149 ft 445 kts 346°
2026-04-20 03:48 49.18489 8.73937 36143 ft 445 kts 346°
2026-04-20 03:49 49.24612 8.72622 36165 ft 446 kts 346°
2026-04-20 03:49 49.30779 8.71296 36153 ft 448 kts 346°
2026-04-20 03:50 49.36933 8.69970 36162 ft 449 kts 346°
2026-04-20 03:50 49.43147 8.68626 36181 ft 451 kts 347°
2026-04-20 03:51 49.49372 8.67245 36167 ft 454 kts 346°
2026-04-20 03:51 49.55584 8.65719 36165 ft 455 kts 346°
2026-04-20 03:52 49.61853 8.64157 36161 ft 457 kts 346°
2026-04-20 03:52 49.68125 8.62607 36163 ft 458 kts 346°
2026-04-20 03:53 49.74458 8.61049 36166 ft 459 kts 346°
2026-04-20 03:53 49.80773 8.59493 36165 ft 460 kts 346°
2026-04-20 03:54 49.87097 8.57929 36169 ft 460 kts 346°
2026-04-20 03:54 49.90230 8.57151 35958 ft 464 kts 346°
2026-04-20 03:54 49.93504 8.56334 35164 ft 474 kts 346°
2026-04-20 03:55 49.96716 8.55538 34421 ft 473 kts 346°
2026-04-20 03:55 49.99965 8.54732 33587 ft 471 kts 346°
2026-04-20 03:55 50.03212 8.53801 32623 ft 468 kts 342°
2026-04-20 03:55 50.06334 8.52470 31745 ft 463 kts 338°
2026-04-20 03:56 50.09334 8.50752 30842 ft 458 kts 332°
2026-04-20 03:56 50.12194 8.48756 30231 ft 451 kts 332°
2026-04-20 03:56 50.15034 8.46757 29491 ft 445 kts 332°
2026-04-20 03:56 50.17860 8.44776 28833 ft 438 kts 332°
2026-04-20 03:57 50.20615 8.42855 28250 ft 432 kts 332°
2026-04-20 03:57 50.23345 8.40959 27663 ft 427 kts 332°
2026-04-20 03:57 50.26050 8.39080 27073 ft 422 kts 332°
2026-04-20 03:57 50.28723 8.37224 26478 ft 418 kts 332°
2026-04-20 03:58 50.31370 8.35385 25926 ft 414 kts 332°
2026-04-20 03:58 50.33998 8.33556 25353 ft 411 kts 332°
2026-04-20 03:58 50.36601 8.31743 24817 ft 408 kts 333°
2026-04-20 03:58 50.39159 8.29960 24245 ft 406 kts 332°
2026-04-20 03:59 50.41690 8.28029 23664 ft 402 kts 327°
2026-04-20 03:59 50.44055 8.25718 23015 ft 398 kts 324°
2026-04-20 03:59 50.46366 8.23347 22431 ft 395 kts 324°
2026-04-20 03:59 50.48665 8.21001 21883 ft 391 kts 324°
2026-04-20 04:00 50.50936 8.18694 21368 ft 387 kts 324°
2026-04-20 04:00 50.53190 8.16409 20830 ft 384 kts 324°
2026-04-20 04:00 50.55426 8.14145 20320 ft 381 kts 324°
2026-04-20 04:00 50.57649 8.11893 19803 ft 378 kts 324°
2026-04-20 04:01 50.59850 8.09661 19340 ft 375 kts 324°
2026-04-20 04:01 50.62038 8.07444 18833 ft 373 kts 325°
2026-04-20 04:01 50.64186 8.05273 18270 ft 371 kts 325°
2026-04-20 04:01 50.66352 8.03084 17720 ft 368 kts 325°
2026-04-20 04:02 50.68501 8.00909 17204 ft 365 kts 325°
2026-04-20 04:02 50.70629 7.98751 16719 ft 361 kts 325°
2026-04-20 04:02 50.72735 7.96613 16239 ft 358 kts 325°
2026-04-20 04:02 50.74797 7.94455 15724 ft 350 kts 320°
2026-04-20 04:03 50.76435 7.91686 15270 ft 342 kts 302°
2026-04-20 04:03 50.77674 7.88483 14839 ft 342 kts 301°
2026-04-20 04:03 50.78932 7.85298 14378 ft 352 kts 301°
2026-04-20 04:03 50.80268 7.81982 13894 ft 361 kts 302°
2026-04-20 04:04 50.81626 7.78639 13344 ft 362 kts 302°
2026-04-20 04:04 50.82981 7.75307 12824 ft 359 kts 302°
2026-04-20 04:04 50.84323 7.72006 12331 ft 354 kts 302°
2026-04-20 04:04 50.85644 7.68745 11853 ft 350 kts 302°
2026-04-20 04:05 50.86947 7.65518 11381 ft 346 kts 302°
2026-04-20 04:05 50.88227 7.62345 11126 ft 335 kts 302°
2026-04-20 04:05 50.89461 7.59283 10982 ft 323 kts 302°
2026-04-20 04:05 50.90647 7.56338 10838 ft 311 kts 302°
2026-04-20 04:06 50.91786 7.53507 10708 ft 299 kts 302°
2026-04-20 04:06 50.92881 7.50781 10581 ft 287 kts 302°
2026-04-20 04:06 50.93919 7.48195 10482 ft 276 kts 302°
2026-04-20 04:06 50.94926 7.45680 10362 ft 265 kts 302°
2026-04-20 04:07 50.95892 7.43269 10265 ft 253 kts 302°
2026-04-20 04:07 50.96813 7.40967 10067 ft 244 kts 302°
2026-04-20 04:07 50.97719 7.38699 9790 ft 244 kts 302°
2026-04-20 04:07 50.98642 7.36388 9488 ft 251 kts 302°
2026-04-20 04:08 50.99585 7.34029 9179 ft 254 kts 302°
2026-04-20 04:08 51.00211 7.32459 8962 ft 254 kts 303°
2026-04-20 04:08 51.01459 7.29325 8528 ft 248 kts 303°
2026-04-20 04:08 51.02371 7.27032 8234 ft 243 kts 303°
2026-04-20 04:09 51.02966 7.25539 8038 ft 240 kts 303°
2026-04-20 04:09 51.04146 7.22570 7660 ft 242 kts 303°
2026-04-20 04:09 51.04752 7.21043 7459 ft 247 kts 303°
2026-04-20 04:09 51.05676 7.18715 7176 ft 250 kts 303°
2026-04-20 04:10 51.06600 7.16383 6847 ft 248 kts 304°
2026-04-20 04:10 51.07489 7.14078 6533 ft 241 kts 298°
2026-04-20 04:10 51.07845 7.11525 6213 ft 238 kts 271°
2026-04-20 04:10 51.07730 7.08849 5938 ft 249 kts 269°
2026-04-20 04:11 51.07633 7.06058 5625 ft 256 kts 270°
2026-04-20 04:11 51.07535 7.03229 5144 ft 255 kts 269°
2026-04-20 04:11 51.07433 7.00467 4838 ft 241 kts 269°
2026-04-20 04:11 51.07264 6.97848 4498 ft 233 kts 254°
2026-04-20 04:12 51.06416 6.95766 4492 ft 221 kts 228°
2026-04-20 04:12 51.05374 6.94029 4421 ft 214 kts 230°
2026-04-20 04:12 51.04315 6.92445 4113 ft 214 kts 210°
2026-04-20 04:12 51.02907 6.92018 3993 ft 204 kts 169°
2026-04-20 04:13 51.01665 6.93034 3977 ft 207 kts 138°
2026-04-20 04:13 51.00600 6.94607 3695 ft 209 kts 136°
2026-04-20 04:13 50.99542 6.96163 3395 ft 204 kts 136°
2026-04-20 04:13 50.98517 6.97662 3111 ft 197 kts 136°
2026-04-20 04:14 50.97527 6.99109 2850 ft 187 kts 136°
2026-04-20 04:14 50.96610 7.00449 2606 ft 172 kts 136°
2026-04-20 04:14 50.95726 7.01738 2371 ft 172 kts 136°
2026-04-20 04:14 50.94851 7.03013 2152 ft 169 kts 135°
2026-04-20 04:15 50.93995 7.04260 1894 ft 164 kts 135°
2026-04-20 04:15 50.93170 7.05460 1690 ft 160 kts 135°
2026-04-20 04:15 50.92351 7.06654 1455 ft 160 kts 136°
2026-04-20 04:15 50.91539 7.07836 1210 ft 156 kts 136°
2026-04-20 04:16 50.90751 7.08984 990 ft 152 kts 137°
2026-04-20 04:16 50.89974 7.10118 790 ft 152 kts 137°
2026-04-20 04:16 50.89195 7.11251 585 ft 152 kts 137°
2026-04-20 04:16 50.88418 7.12375 372 ft 151 kts 136°
2026-04-20 04:17 50.87648 7.13489 249 ft 146 kts 137°
2026-04-20 04:17 50.86990 7.14440 261 ft 104 kts 137°
2026-04-20 04:17 50.86594 7.15015 280 ft 51 kts 137°
2026-04-20 04:17 50.86417 7.15236 291 ft 27 kts 153°
2026-04-20 04:18 50.86262 7.15320 297 ft 21 kts 168°
2026-04-20 04:18 50.86120 7.15354 294 ft 21 kts 190°
2026-04-20 04:18 50.86047 7.15189 298 ft 20 kts 275°
2026-04-20 04:18 50.86125 7.15019 294 ft 16 kts 317°
2026-04-20 04:19 50.86206 7.14903 291 ft 17 kts 317°
2026-04-20 04:19 50.86296 7.14771 282 ft 19 kts 317°
2026-04-20 04:19 50.86401 7.14620 276 ft 21 kts 317°
2026-04-20 04:19 50.86502 7.14474 270 ft 21 kts 317°
2026-04-20 04:20 50.86608 7.14319 266 ft 20 kts 317°
2026-04-20 04:20 50.86704 7.14179 262 ft 16 kts 317°
2026-04-20 04:20 50.86803 7.14095 259 ft 16 kts 321°
2026-04-20 04:20 50.86877 7.13991 259 ft 14 kts 317°
2026-04-20 04:21 50.86947 7.13889 252 ft 13 kts 317°
2026-04-20 04:21 50.86944 7.13813 250 ft 4 kts 227°
2026-04-20 04:21 50.86925 7.13781 250 ft 4 kts 226°
2026-04-20 04:21 50.86908 7.13752 250 ft 3 kts 227°
2026-04-20 04:22 50.86906 7.13749 250 ft 0 kts 227°